Home > Weather > Glendale > Past weeks

Flag for USA Past Weather in Glendale, California, USA — Yesterday and Last 2 Weeks

Now
61 °F

Passing clouds.


Feels Like: 61 °F
Forecast: 55 / 75 °F
Wind: 3 mph from Southwest

Location: Bob Hope Airport

Current Time: May 27, 2016 at 9:21:42 AM

Latest Report: May 27, 2016 at 8:53 AM


Visibility: 10 mi

Pressure: 29.93 "Hg

Humidity: 75%

Dew Point: 53 °F

Location of GlendaleLocation

Past Weather in Glendale — Graph

°F

Glendale Temperature Yesterday

Maximum temperature yesterday: 72 °F (at 2:53 PM)
Minimum temperature yesterday: 54 °F (at 6:00 AM)
Average temperature yesterday: 62 °F

High & Low Weather Summary for the Past Weeks

 TemperatureHumidityPressure
High84 °F (May 13, 3:53 PM)93% (May 12, 7:53 AM)30.06 "Hg (May 12, 7:53 AM)
Low50 °F (May 22, 5:53 AM)29% (May 13, 2:53 PM)29.77 "Hg (May 19, 5:53 PM)
Average63 °F68%29.92 "Hg
* Reported May 12 7:53 AM — May 27 7:53 AM, Glendale, Weather by CustomWeather, © 2016

Note: Actual official high and low records may vary slightly from our data, if they occured in-between our weather recording intervals... More about our weather records

Advertising

Glendale Weather History for the Previous 24 Hours

Scroll right to see more
 ConditionsComfort  
Time TempWeatherWind HumidityBarometerVisibility
7:53 AM
Fri, May 27
59 °FSunny.3 mph78%29.91 "Hg10 mi
6:53 AM57 °FScattered clouds.3 mph83%29.92 "Hg10 mi
5:53 AM56 °FPassing clouds.3 mph81%29.92 "Hg10 mi
4:53 AM55 °FClear.No wind77%29.91 "Hg10 mi
3:53 AM56 °FClear.No wind77%29.91 "Hg10 mi
2:53 AM56 °FClear.No wind77%29.92 "Hg10 mi
1:53 AM57 °FClear.No wind74%29.93 "Hg10 mi
12:53 AM58 °FClear.No wind75%29.94 "Hg10 mi
11:53 PM
Thu, May 26
58 °FClear.3 mph75%29.94 "Hg10 mi
10:53 PM59 °FClear.5 mph75%29.95 "Hg10 mi
9:53 PM61 °FClear.8 mph67%29.94 "Hg10 mi
8:53 PM62 °FSunny.8 mph62%29.93 "Hg10 mi
7:53 PM63 °FSunny.8 mph60%29.93 "Hg10 mi
6:53 PM66 °FSunny.8 mph59%29.92 "Hg10 mi
5:53 PM68 °FSunny.10 mph55%29.92 "Hg10 mi
4:53 PM69 °FSunny.9 mph53%29.93 "Hg10 mi
3:53 PM71 °FSunny.8 mph51%29.94 "Hg10 mi
2:53 PM72 °FSunny.12 mph48%29.96 "Hg10 mi
1:53 PM71 °FSunny.7 mph49%29.97 "Hg10 mi
12:53 PM71 °FSunny.9 mph49%29.99 "Hg10 mi
11:53 AM70 °FSunny.No wind47%30.00 "Hg10 mi
10:53 AM66 °FSunny.3 mph54%30.02 "Hg10 mi
9:53 AM63 °FPassing clouds.5 mph58%30.03 "Hg10 mi
Weather by CustomWeather, © 2016

See weather overviewHow to use our weather pages